QPF
0.00 0.00 0.00 0.00 0.00 0.00 0.00 0.00 0.00 0.00 0.00 0.00 0.00 0.00 0.00 0.00 0.00 0.00 0.00 0.00 0.00 0.00 0.00 0.00 0.00 0.00 0.00 0.00 0.00 0.00 0.00 0.00 0.00 0.00 0.00 0.00 0.00 0.00 0.00 0.00 0.00 0.00 0.00 0.04
0.00 0.00 0.00 0.00 0.00 0.00 0.00 0.00 0.00 0.00 0.00 0.00 0.00 0.00 0.00 0.00 0.00 0.00 0.01 0.01 0.00 0.00 0.03 0.02 0.02 0.02 0.07 0.04 0.01 0.03 0.05 0.02 0.02 0.01 0.00 0.00 0.00 0.00 0.00 0.00 0.00 0.00 0.00 0.01
0.00 0.00 0.00 0.00 0.00 0.00 0.00 0.00 0.00 0.00 0.00 0.00 0.00 0.00 0.00 0.00 0.00 0.00 0.00 0.00 0.00 0.01 0.08 0.10 0.05 0.04 0.08 0.10 0.08 0.13 0.10 0.06 0.06 0.08 0.04 0.05 0.00 0.00 0.00 0.00 0.00 0.00 0.02 0.02
0.00 0.00 0.00 0.00 0.00 0.00 0.00 0.00 0.00 0.00 0.00 0.00 0.00 0.00 0.00 0.00 0.00 0.00 0.00 0.00 0.00 0.01 0.02 0.00 0.00 0.00 0.00 0.02 0.03 0.08 0.10 0.10 0.08 0.07 0.07 0.07 0.03 0.01 0.00 0.00 0.00 0.01 0.04 0.05
0.00 0.00 0.00 0.00 0.00 0.00 0.00 0.00 0.00 0.00 0.00 0.00 0.00 0.00 0.00 0.00 0.00 0.00 0.00 0.00 0.00 0.01 0.00 0.00 0.00 0.00 0.00 0.00 0.01 0.02 0.02 0.03 0.04 0.06 0.06 0.05 0.03 0.05 0.06 0.01 0.01 0.03 0.07 0.12
0.00 0.00 0.00 0.00 0.00 0.00 0.00 0.00 0.00 0.00 0.00 0.00 0.00 0.00 0.00 0.00 0.00 0.00 0.00 0.00 0.00 0.00 0.00 0.00 0.00 0.00 0.00 0.00 0.03 0.03 0.02 0.00 0.00 0.01 0.01 0.01 0.02 0.06 0.14 0.16 0.12 0.16 0.19 0.20
0.00 0.00 0.00 0.00 0.00 0.00 0.00 0.00 0.00 0.00 0.00 0.00 0.00 0.00 0.00 0.00 0.00 0.00 0.00 0.00 0.00 0.00 0.00 0.01 0.01 0.00 0.00 0.00 0.01 0.00 0.04 0.07 0.03 0.03 0.01 0.02 0.02 0.06 0.13 0.21 0.24 0.19 0.15 0.10
0.00 0.00 0.00 0.00 0.00 0.00 0.00 0.00 0.00 0.00 0.00 0.00 0.00 0.00 0.00 0.00 0.00 0.00 0.00 0.00 0.00 0.00 0.00 0.02 0.01 0.01 0.00 0.00 0.00 0.01 0.01 0.01 0.03 0.03 0.02 0.03 0.04 0.06 0.07 0.08 0.07 0.07 0.05 0.03
0.00 0.00 0.00 0.00 0.00 0.00 0.00 0.00 0.00 0.00 0.00 0.00 0.00 0.00 0.00 0.00 0.00 0.00 0.00 0.00 0.00 0.00 0.00 0.01 0.05 0.04 0.02 0.00 0.00 0.00 0.05 0.01 0.00 0.01 0.00 0.01 0.01 0.01 0.01 0.00 0.01 0.00 0.00 0.00
0.00 0.00 0.00 0.00 0.00 0.00 0.00 0.00 0.00 0.00 0.00 0.00 0.00 0.00 0.00 0.00 0.00 0.00 0.00 0.00 0.00 0.00 0.00 0.00 0.00 0.03 0.03 0.02 0.02 0.02 0.07 0.08 0.02 0.02 0.03 0.05 0.02 0.01 0.01 0.00 0.00 0.01 0.01 0.00
0.00 0.00 0.00 0.00 0.00 0.00 0.00 0.00 0.00 0.00 0.00 0.00 0.00 0.00 0.00 0.00 0.00 0.00 0.00 0.00 0.00 0.00 0.00 0.00 0.00 0.01 0.04 0.03 0.06 0.08 0.08 0.12 0.02 0.01 0.01 0.03 0.02 0.00 0.01 0.01 0.01 0.01 0.00 0.00
0.00 0.00 0.00 0.00 0.00 0.00 0.00 0.00 0.00 0.00 0.00 0.00 0.00 0.00 0.00 0.00 0.00 0.00 0.00 0.00 0.00 0.00 0.00 0.00 0.00 0.00 0.01 0.01 0.05 0.06 0.08 0.08 0.06 0.02 0.01 0.00 0.01 0.00 0.00 0.00 0.01 0.00 0.00 0.00
0.00 0.00 0.00 0.00 0.00 0.00 0.00 0.00 0.00 0.00 0.00 0.00 0.00 0.00 0.00 0.00 0.01 0.02 0.02 0.01 0.00 0.00 0.00 0.00 0.00 0.00 0.00 0.00 0.00 0.00 0.00 0.00 0.00 0.00 0.00 0.00 0.00 0.00 0.00 0.00 0.00 0.00 0.00 0.00
0.00 0.00 0.00 0.00 0.00 0.00 0.00 0.00 0.00 0.00 0.00 0.00 0.00 0.00 0.00 0.01 0.01 0.06 0.11 0.03 0.01 0.00 0.00 0.00 0.00 0.00 0.00 0.00 0.00 0.00 0.00 0.00 0.00 0.00 0.00 0.00 0.00 0.00 0.00 0.00 0.00 0.00 0.00 0.00
0.00 0.00 0.00 0.00 0.00 0.00 0.00 0.00 0.00 0.00 0.00 0.00 0.00 0.00 0.00 0.00 0.00 0.02 0.10 0.05 0.02 0.00 0.00 0.00 0.00 0.00 0.00 0.00 0.00 0.01 0.00 0.00 0.00 0.00 0.00 0.00 0.00 0.00 0.00 0.00 0.00 0.00 0.00 0.00
0.00 0.00 0.00 0.00 0.00 0.00 0.00 0.00 0.00 0.00 0.00 0.00 0.00 0.00 0.00 0.00 0.00 0.01 0.03 0.00 0.00 0.00 0.00 0.00 0.00 0.00 0.00 0.00 0.00 0.00 0.00 0.00 0.00 0.00 0.00 0.00 0.00 0.00 0.00 0.00 0.00 0.00 0.00 0.00
0.00 0.00 0.00 0.00 0.00 0.00 0.00 0.00 0.00 0.00 0.00 0.00 0.00 0.00 0.00 0.00 0.00 0.00 0.00 0.00 0.00 0.00 0.00 0.00 0.00 0.00 0.00 0.00 0.00 0.00 0.00 0.00 0.00 0.00 0.00 0.00 0.00 0.00 0.00 0.00 0.00 0.00 0.00 0.00
0.00 0.00 0.00 0.00 0.00 0.00 0.00 0.00 0.00 0.00 0.00 0.00 0.00 0.00 0.00 0.00 0.00 0.00 0.00 0.00 0.00 0.00 0.00 0.00 0.00 0.00 0.00 0.00 0.00 0.00 0.00 0.00 0.00 0.00 0.00 0.00 0.00 0.00 0.00 0.00 0.00 0.00 0.00 0.00
0.00 0.00 0.00 0.00 0.00 0.00 0.00 0.00 0.00 0.00 0.00 0.00 0.00 0.00 0.00 0.00 0.00 0.00 0.00 0.00 0.00 0.00 0.00 0.00 0.00 0.00 0.00 0.00 0.00 0.00 0.00 0.00 0.00 0.00 0.00 0.00 0.00 0.00 0.00 0.00 0.00 0.00 0.00 0.00
0.00 0.00 0.00 0.00 0.00 0.00 0.00 0.00 0.00 0.00 0.00 0.00 0.00 0.00 0.00 0.00 0.00 0.00 0.00 0.00 0.00 0.00 0.00 0.00 0.00 0.00 0.00 0.00 0.00 0.00 0.00 0.00 0.00 0.00 0.00 0.00 0.00 0.00 0.00 0.00 0.00 0.00 0.00 0.00
0.00 0.00 0.00 0.00 0.00 0.00 0.00 0.00 0.00 0.00 0.00 0.00 0.00 0.00 0.00 0.00 0.00 0.00 0.00 0.00 0.00 0.00 0.00 0.00 0.00 0.00 0.00 0.00 0.00 0.00 0.00 0.00 0.00 0.00 0.00 0.00 0.00 0.00 0.00 0.00 0.00 0.00 0.00 0.00
0.00 0.00 0.00 0.00 0.00 0.00 0.00 0.00 0.00 0.00 0.00 0.00 0.00 0.00 0.00 0.00 0.00 0.00 0.00 0.00 0.00 0.00 0.00 0.00 0.00 0.00 0.00 0.00 0.00 0.00 0.00 0.00 0.00 0.00 0.00 0.00 0.00 0.00 0.00 0.00 0.00 0.00 0.00 0.00
0.00 0.00 0.00 0.00 0.00 0.00 0.00 0.00 0.00 0.00 0.00 0.00 0.00 0.00 0.00 0.00 0.00 0.00 0.00 0.00 0.00 0.00 0.00 0.00 0.00 0.00 0.00 0.00 0.00 0.00 0.00 0.00 0.00 0.00 0.00 0.00 0.00 0.00 0.00 0.00 0.00 0.00 0.00 0.00
0.00 0.00 0.00 0.00 0.00 0.00 0.00 0.00 0.00 0.00 0.00 0.00 0.00 0.00 0.00 0.00 0.00 0.00 0.00 0.00 0.00 0.00 0.00 0.00 0.00 0.00 0.00 0.00 0.00 0.00 0.00 0.00 0.00 0.00 0.00 0.00 0.00 0.00 0.00 0.00 0.00 0.00 0.00 0.00
0.00 0.00 0.00 0.00 0.00 0.00 0.00 0.00 0.00 0.00 0.00 0.00 0.00 0.00 0.00 0.00 0.00 0.00 0.00 0.00 0.00 0.00 0.00 0.00 0.00 0.00 0.00 0.00 0.00 0.00 0.00 0.00 0.00 0.00 0.00 0.00 0.00 0.00 0.00 0.00 0.00 0.00 0.00 0.00
0.00 0.00 0.00 0.00 0.00 0.00 0.00 0.00 0.00 0.00 0.00 0.00 0.00 0.00 0.00 0.00 0.00 0.00 0.00 0.00 0.00 0.00 0.00 0.00 0.00 0.00 0.00 0.00 0.00 0.00 0.00 0.00 0.00 0.00 0.00 0.00 0.00 0.00 0.00 0.00 0.00 0.00 0.00 0.00
0.00 0.00 0.00 0.00 0.00 0.00 0.00 0.00 0.00 0.00 0.00 0.00 0.00 0.00 0.00 0.00 0.00 0.00 0.00 0.00 0.00 0.00 0.00 0.00 0.00 0.00 0.00 0.00 0.00 0.00 0.00 0.00 0.00 0.00 0.00 0.00 0.00 0.00 0.00 0.00 0.00 0.00 0.00 0.00
MSLP
1011.73 1011.45 1011.43 1011.48 1011.94 1012.80 1013.60 1013.85 1014.25 1013.71 1013.53 1012.10 1012.02 1012.30 1012.84 1013.25 1013.35 1013.17 1012.72 1013.04 1012.41 1012.05 1012.64 1012.78 1012.29 1012.11 1011.70 1011.64 1011.56 1011.82 1012.30 1012.84 1013.04 1013.46 1013.97 1014.43 1014.87 1015.19 1015.45 1015.89 1016.10 1016.23 1016.55 1016.80
1012.16 1011.43 1011.08 1011.08 1011.28 1011.78 1012.54 1013.02 1013.06 1012.86 1012.42 1011.24 1011.74 1012.17 1012.81 1013.16 1013.14 1013.12 1013.03 1013.30 1013.12 1012.73 1012.59 1012.80 1012.78 1012.92 1012.71 1012.26 1012.17 1012.23 1012.44 1012.66 1012.86 1013.26 1013.76 1014.21 1014.55 1014.96 1015.24 1015.52 1015.87 1016.12 1016.35 1016.53
1012.96 1011.94 1011.38 1011.06 1010.37 1010.72 1011.21 1011.27 1011.58 1012.20 1011.20 1011.18 1011.71 1012.01 1012.09 1012.61 1012.86 1012.96 1013.09 1013.24 1013.06 1012.75 1012.85 1012.92 1013.06 1012.96 1012.90 1012.76 1012.85 1012.95 1012.78 1012.93 1013.15 1013.22 1013.54 1014.14 1014.37 1014.92 1015.17 1015.29 1015.53 1015.72 1015.93 1016.21
1013.54 1012.69 1012.01 1010.18 1009.60 1009.70 1009.99 1010.30 1010.68 1010.75 1010.87 1011.25 1011.35 1011.71 1012.07 1012.27 1012.74 1013.04 1013.18 1013.19 1013.15 1012.96 1012.91 1012.86 1012.93 1012.69 1012.78 1012.70 1012.64 1012.68 1012.87 1013.18 1013.32 1013.50 1013.53 1013.37 1013.59 1014.38 1014.89 1015.01 1015.19 1015.24 1015.65 1016.04
1013.88 1013.21 1012.04 1010.06 1009.31 1009.43 1009.45 1010.05 1010.20 1010.59 1011.17 1011.62 1011.85 1011.96 1012.25 1012.30 1012.45 1012.79 1012.96 1013.18 1013.04 1012.97 1012.95 1012.93 1013.12 1013.00 1012.74 1012.47 1012.53 1012.48 1012.27 1012.35 1012.64 1012.87 1013.09 1012.67 1012.91 1014.15 1014.39 1014.82 1015.04 1015.47 1015.81 1016.17
1013.98 1013.28 1011.98 1009.92 1008.92 1008.66 1009.08 1009.86 1009.92 1010.54 1011.24 1011.75 1012.14 1012.53 1012.63 1012.49 1012.47 1012.69 1012.74 1013.02 1012.87 1012.96 1013.17 1013.29 1013.26 1013.25 1013.37 1013.15 1012.69 1012.11 1011.68 1011.25 1011.64 1012.42 1012.35 1012.34 1012.90 1013.55 1014.23 1015.03 1015.29 1015.69 1016.22 1016.43
1013.10 1012.39 1011.00 1009.26 1008.72 1008.51 1009.27 1010.03 1009.78 1010.40 1011.07 1011.71 1012.11 1012.08 1012.52 1012.41 1012.58 1012.75 1012.88 1013.19 1012.98 1013.06 1013.27 1013.30 1013.22 1013.14 1012.91 1012.64 1012.57 1012.01 1011.60 1011.43 1011.51 1011.60 1012.01 1012.31 1012.93 1013.58 1014.36 1015.08 1015.22 1015.84 1016.47 1016.94
1012.64 1011.43 1010.07 1008.54 1008.86 1008.88 1008.87 1009.23 1009.50 1010.11 1010.57 1011.19 1011.37 1011.90 1012.33 1012.74 1012.82 1012.95 1012.86 1012.94 1012.98 1013.16 1013.15 1013.11 1013.02 1012.85 1012.70 1012.64 1012.70 1012.57 1012.29 1011.90 1011.48 1011.82 1012.15 1012.59 1013.08 1014.05 1014.80 1015.02 1015.92 1016.21 1016.46 1017.13
1010.48 1009.57 1008.66 1008.15 1008.03 1007.82 1008.12 1008.57 1009.22 1009.57 1010.02 1010.50 1011.12 1011.46 1011.85 1012.28 1012.69 1012.80 1012.77 1013.05 1013.22 1013.21 1013.22 1013.23 1013.15 1013.14 1013.04 1012.95 1012.83 1012.97 1012.67 1012.55 1012.60 1012.97 1012.86 1013.09 1013.61 1014.22 1014.91 1015.75 1015.93 1016.68 1016.11 1017.00
1009.56 1008.84 1008.41 1008.07 1007.84 1007.84 1008.06 1008.14 1008.47 1008.72 1009.24 1009.96 1010.56 1010.98 1011.63 1012.11 1012.42 1012.63 1012.81 1013.05 1013.12 1013.34 1013.44 1013.29 1013.18 1013.15 1013.20 1012.99 1012.98 1013.14 1013.19 1013.41 1013.41 1013.90 1014.08 1014.06 1014.39 1014.98 1015.67 1014.96 1015.69 1016.45 1016.51 1017.34
1009.01 1008.63 1008.46 1008.02 1007.68 1007.66 1007.99 1008.33 1008.71 1009.09 1009.32 1009.67 1010.31 1010.78 1011.46 1012.01 1012.50 1012.62 1012.78 1012.95 1013.20 1013.37 1013.50 1013.44 1013.43 1013.41 1013.13 1013.13 1013.26 1013.45 1013.59 1013.84 1014.07 1014.50 1014.95 1015.36 1016.21 1016.40 1015.62 1016.13 1016.31 1016.88 1017.24 1017.65
1008.24 1007.76 1007.79 1007.74 1007.63 1007.79 1008.20 1008.37 1008.47 1008.91 1009.24 1009.50 1010.06 1010.55 1011.05 1011.44 1011.79 1012.32 1012.76 1013.06 1013.43 1013.66 1013.91 1013.77 1013.72 1013.47 1013.39 1013.49 1013.52 1013.80 1014.10 1014.28 1014.76 1014.87 1015.38 1015.73 1016.21 1016.62 1016.99 1016.95 1016.77 1017.20 1017.76 1018.28
1007.35 1007.39 1007.57 1007.57 1007.86 1008.08 1008.34 1008.45 1008.62 1009.01 1009.34 1009.70 1009.94 1010.44 1010.99 1011.43 1011.98 1012.28 1012.65 1013.06 1013.29 1013.56 1013.77 1013.81 1013.93 1013.75 1013.62 1013.76 1013.85 1014.01 1014.26 1014.69 1014.97 1015.29 1015.74 1016.03 1016.32 1016.75 1017.50 1018.33 1018.10 1018.21 1018.32 1019.23
1007.21 1007.35 1007.92 1008.01 1007.99 1008.02 1008.31 1008.58 1009.03 1009.28 1009.55 1009.87 1010.25 1010.60 1011.19 1011.65 1011.95 1012.33 1012.68 1012.64 1013.12 1013.38 1013.71 1013.87 1014.05 1013.90 1013.88 1013.85 1014.10 1014.32 1014.66 1014.99 1015.26 1015.42 1015.79 1016.24 1016.65 1017.05 1017.39 1017.61 1018.18 1019.40 1019.67 1019.40
1006.94 1007.36 1007.62 1007.62 1008.05 1008.27 1008.70 1009.12 1009.36 1009.61 1009.93 1010.14 1010.52 1010.85 1011.13 1011.60 1011.87 1012.01 1012.39 1012.71 1013.25 1013.55 1013.95 1014.09 1014.38 1014.25 1014.21 1014.22 1014.27 1014.69 1015.13 1015.35 1015.32 1015.72 1015.97 1016.26 1016.75 1017.16 1017.51 1017.89 1018.52 1018.98 1019.69 1020.01
1006.76 1007.25 1007.70 1007.91 1008.28 1008.64 1008.97 1009.24 1009.53 1009.68 1010.04 1010.24 1010.65 1010.98 1011.24 1011.57 1011.90 1012.24 1012.05 1012.57 1013.20 1013.82 1014.18 1014.22 1014.27 1014.13 1014.37 1014.51 1014.78 1015.06 1015.43 1015.69 1015.73 1015.97 1016.30 1016.75 1017.01 1017.25 1017.62 1018.22 1018.70 1018.87 1019.25 1019.81
1007.11 1007.42 1007.63 1007.91 1008.32 1008.57 1008.62 1008.68 1008.96 1009.45 1009.90 1010.12 1010.44 1010.71 1011.11 1011.56 1011.87 1012.27 1012.49 1012.54 1012.93 1013.40 1013.65 1013.78 1013.89 1014.05 1014.35 1014.55 1014.76 1015.11 1015.47 1015.75 1015.73 1016.11 1016.54 1016.85 1017.18 1017.53 1017.79 1018.03 1018.38 1018.53 1018.92 1019.49
1006.17 1006.04 1006.29 1006.58 1007.36 1007.88 1008.31 1008.52 1009.00 1009.38 1009.72 1009.94 1010.39 1010.77 1011.15 1011.52 1011.75 1012.20 1012.46 1012.78 1013.06 1013.52 1013.72 1013.83 1013.95 1014.14 1014.29 1014.58 1014.86 1015.20 1015.51 1015.71 1015.91 1016.13 1016.50 1016.89 1017.27 1017.53 1017.77 1017.97 1018.20 1018.53 1018.69 1019.13
1005.55 1005.68 1006.04 1006.49 1006.75 1007.31 1007.68 1008.20 1008.48 1009.01 1009.40 1009.78 1010.15 1010.50 1010.84 1011.25 1011.58 1012.00 1012.39 1012.88 1013.11 1013.15 1013.43 1013.75 1013.96 1014.13 1014.26 1014.51 1014.78 1015.10 1015.43 1015.75 1016.00 1016.06 1016.33 1016.77 1017.17 1017.41 1017.65 1017.92 1017.97 1018.30 1018.38 1018.62
1004.96 1005.05 1005.34 1005.81 1006.32 1006.77 1007.24 1007.48 1008.07 1008.68 1009.00 1009.41 1009.91 1010.49 1010.89 1011.17 1011.47 1011.95 1012.30 1012.53 1012.51 1012.38 1012.75 1013.24 1013.61 1013.89 1014.08 1014.27 1014.58 1014.92 1015.28 1015.42 1015.57 1015.82 1016.27 1016.52 1016.75 1016.99 1017.19 1017.34 1017.81 1018.07 1018.15 1018.35
1004.45 1004.66 1004.98 1005.41 1005.79 1006.19 1006.61 1007.07 1007.72 1008.21 1008.45 1008.89 1009.38 1009.85 1010.22 1010.79 1011.27 1011.77 1012.34 1012.55 1012.13 1012.43 1012.67 1013.02 1013.26 1013.55 1013.85 1014.13 1014.38 1014.69 1014.94 1015.13 1015.31 1015.58 1015.64 1015.98 1016.30 1016.54 1016.80 1017.03 1017.26 1017.50 1017.77 1017.95
1004.44 1004.48 1004.82 1005.34 1005.70 1005.95 1006.36 1006.88 1007.42 1007.86 1008.21 1008.70 1009.14 1009.57 1010.03 1010.51 1011.05 1011.56 1011.60 1011.69 1011.58 1011.95 1012.40 1012.75 1012.99 1013.19 1013.52 1013.84 1014.14 1014.45 1014.71 1014.88 1015.00 1015.24 1015.53 1015.83 1016.11 1016.30 1016.52 1016.66 1016.68 1016.74 1017.07 1017.36
1004.92 1004.69 1004.95 1005.27 1005.59 1005.81 1006.39 1006.84 1007.23 1007.56 1007.96 1008.31 1008.63 1009.10 1009.46 1009.62 1010.14 1010.94 1011.34 1011.12 1011.46 1011.74 1011.88 1012.10 1012.35 1012.72 1013.10 1013.53 1013.89 1014.21 1014.47 1014.63 1014.72 1014.81 1014.98 1015.35 1015.55 1015.68 1015.82 1015.96 1016.18 1016.36 1016.76 1017.01
1005.88 1005.41 1005.05 1005.37 1005.68 1006.21 1006.65 1006.55 1006.97 1007.24 1007.43 1007.68 1007.98 1008.37 1008.92 1009.48 1009.91 1009.93 1010.17 1010.26 1010.55 1011.10 1011.40 1011.59 1011.95 1012.24 1012.80 1013.23 1013.56 1013.86 1014.08 1014.24 1014.36 1014.48 1014.70 1014.87 1014.85 1015.03 1015.15 1015.14 1015.39 1015.66 1015.94 1016.20
1006.05 1005.91 1005.76 1005.55 1005.87 1006.01 1005.99 1006.27 1006.78 1007.18 1007.41 1007.65 1007.82 1007.94 1008.20 1008.32 1008.51 1008.83 1009.52 1009.78 1010.15 1010.69 1010.98 1011.09 1011.39 1011.77 1012.32 1012.64 1012.95 1013.23 1013.47 1013.68 1013.86 1014.03 1014.06 1014.12 1014.20 1014.37 1014.43 1014.59 1014.78 1015.07 1015.35 1015.63
1006.03 1005.91 1005.79 1005.52 1005.40 1005.51 1005.99 1006.42 1006.64 1006.68 1007.00 1007.34 1007.44 1007.61 1007.82 1008.07 1008.41 1008.64 1009.05 1009.28 1009.68 1010.13 1010.37 1010.55 1010.85 1011.24 1011.51 1011.78 1012.03 1012.24 1012.48 1012.81 1013.19 1013.49 1013.61 1013.72 1013.85 1013.97 1014.10 1014.29 1014.52 1014.76 1015.01 1015.32
1005.83 1005.62 1005.50 1005.16 1005.12 1005.17 1005.37 1005.65 1005.97 1006.12 1006.41 1006.44 1006.48 1006.68 1006.98 1007.35 1007.76 1008.16 1008.59 1008.96 1009.16 1009.33 1009.55 1009.74 1010.02 1010.33 1010.56 1010.82 1011.14 1011.38 1011.67 1011.98 1012.33 1012.71 1012.99 1013.19 1013.41 1013.45 1013.49 1013.62 1013.85 1014.14 1014.46 1014.85
Thickness
5703 5705 5706 5708 5706 5694 5691 5689 5688 5695 5688 5709 5713 5712 5709 5707 5710 5713 5716 5718 5728 5732 5729 5734 5743 5749 5757 5762 5768 5771 5770 5769 5769 5769 5769 5768 5768 5768 5768 5766 5766 5766 5765 5765
5697 5706 5707 5705 5707 5702 5695 5690 5696 5697 5696 5718 5716 5713 5707 5703 5706 5708 5709 5711 5717 5722 5724 5728 5733 5736 5741 5751 5756 5761 5762 5764 5766 5765 5764 5763 5763 5763 5763 5763 5763 5763 5763 5762
5678 5690 5694 5687 5703 5704 5699 5703 5700 5687 5710 5717 5712 5711 5713 5707 5706 5706 5705 5707 5713 5718 5719 5720 5722 5726 5731 5738 5743 5748 5754 5754 5756 5759 5758 5756 5757 5754 5756 5757 5758 5760 5760 5759
5665 5676 5661 5696 5712 5711 5707 5708 5709 5713 5716 5713 5717 5713 5710 5710 5705 5703 5702 5705 5708 5714 5714 5717 5719 5721 5726 5733 5736 5740 5743 5744 5747 5749 5751 5756 5755 5750 5749 5752 5754 5757 5755 5754
5655 5650 5670 5703 5710 5701 5701 5698 5712 5711 5706 5707 5707 5707 5704 5706 5706 5704 5702 5702 5705 5710 5711 5712 5710 5713 5718 5725 5729 5733 5737 5741 5743 5744 5746 5752 5749 5743 5746 5746 5748 5748 5748 5746
5643 5659 5654 5683 5708 5717 5711 5677 5710 5707 5700 5697 5698 5685 5688 5699 5702 5701 5703 5701 5704 5705 5705 5704 5704 5706 5707 5709 5718 5725 5734 5741 5741 5738 5743 5747 5742 5739 5737 5732 5735 5735 5733 5735
5649 5656 5668 5694 5707 5713 5675 5678 5704 5703 5699 5693 5692 5694 5692 5697 5697 5696 5696 5694 5698 5699 5698 5700 5702 5705 5707 5713 5713 5723 5727 5730 5731 5736 5734 5738 5735 5730 5725 5723 5724 5720 5718 5719
5647 5653 5668 5703 5701 5687 5695 5702 5704 5701 5699 5695 5696 5693 5690 5687 5687 5688 5690 5691 5692 5691 5692 5696 5698 5702 5705 5706 5706 5710 5713 5720 5729 5724 5723 5725 5723 5717 5713 5712 5707 5704 5705 5705
5674 5669 5693 5702 5706 5710 5708 5706 5702 5701 5700 5698 5693 5691 5688 5687 5685 5684 5686 5682 5682 5683 5685 5687 5690 5692 5694 5696 5699 5700 5704 5707 5708 5707 5710 5712 5710 5707 5705 5698 5699 5695 5690 5697
5681 5689 5691 5698 5704 5705 5705 5707 5705 5704 5701 5695 5693 5690 5684 5681 5681 5681 5679 5676 5676 5674 5674 5679 5684 5686 5686 5691 5693 5693 5694 5693 5696 5693 5692 5695 5695 5693 5690 5699 5696 5690 5691 5685
5671 5684 5686 5694 5698 5700 5701 5702 5699 5696 5696 5694 5689 5687 5681 5677 5672 5671 5671 5668 5666 5665 5665 5669 5672 5675 5681 5683 5684 5684 5687 5686 5686 5682 5678 5675 5669 5672 5681 5678 5679 5676 5677 5676
5662 5681 5682 5687 5694 5695 5693 5693 5694 5692 5691 5691 5686 5682 5678 5673 5670 5664 5658 5655 5652 5652 5652 5655 5660 5666 5670 5672 5675 5675 5676 5678 5675 5674 5672 5672 5670 5666 5661 5662 5664 5663 5660 5660
5676 5681 5683 5687 5686 5686 5686 5687 5688 5686 5684 5681 5680 5675 5669 5664 5656 5652 5648 5643 5642 5642 5643 5647 5649 5655 5659 5661 5664 5666 5666 5664 5665 5666 5665 5666 5665 5663 5657 5648 5650 5652 5652 5646
5677 5677 5675 5675 5677 5681 5682 5683 5680 5679 5677 5674 5669 5664 5655 5647 5642 5640 5636 5637 5635 5635 5634 5636 5638 5645 5649 5652 5653 5654 5655 5654 5656 5658 5658 5657 5657 5656 5655 5655 5651 5640 5638 5642
5671 5672 5673 5674 5674 5674 5673 5671 5671 5669 5666 5662 5657 5651 5646 5635 5630 5628 5628 5628 5624 5624 5624 5626 5627 5632 5636 5641 5644 5644 5643 5644 5648 5647 5648 5649 5648 5647 5647 5647 5643 5639 5634 5632
5667 5666 5664 5668 5665 5663 5664 5665 5663 5660 5656 5654 5648 5644 5639 5633 5626 5622 5624 5621 5618 5615 5615 5619 5623 5627 5628 5630 5631 5632 5632 5633 5634 5635 5636 5635 5637 5638 5636 5633 5631 5632 5631 5627
5656 5657 5658 5662 5661 5660 5663 5665 5663 5657 5651 5649 5645 5643 5637 5632 5627 5622 5620 5620 5619 5617 5616 5619 5621 5622 5622 5623 5624 5624 5623 5623 5626 5625 5625 5626 5626 5624 5624 5625 5624 5625 5623 5619
5660 5666 5668 5671 5667 5665 5662 5662 5658 5654 5650 5648 5644 5640 5635 5630 5628 5622 5619 5617 5616 5613 5614 5616 5616 5617 5618 5617 5618 5616 5615 5616 5617 5618 5618 5617 5616 5617 5616 5617 5616 5615 5615 5613
5658 5662 5664 5666 5669 5668 5666 5661 5658 5654 5650 5647 5643 5639 5636 5631 5626 5621 5617 5614 5613 5614 5614 5613 5613 5613 5613 5613 5612 5610 5609 5609 5609 5611 5612 5609 5609 5609 5609 5609 5611 5609 5611 5610
5661 5665 5668 5669 5669 5669 5667 5664 5659 5653 5650 5647 5642 5637 5633 5628 5623 5617 5614 5613 5616 5619 5616 5614 5612 5612 5612 5611 5609 5607 5606 5607 5607 5607 5604 5605 5607 5606 5607 5605 5605 5604 5606 5606
5663 5667 5670 5670 5671 5670 5669 5665 5660 5655 5653 5649 5645 5642 5638 5631 5624 5618 5612 5611 5617 5615 5615 5613 5612 5611 5609 5608 5608 5607 5606 5605 5604 5603 5606 5605 5606 5605 5605 5604 5603 5603 5601 5601
5666 5669 5670 5669 5670 5670 5668 5664 5661 5657 5653 5649 5645 5641 5636 5631 5625 5620 5620 5618 5620 5617 5615 5615 5614 5613 5612 5610 5609 5608 5606 5605 5606 5606 5605 5604 5603 5603 5601 5601 5602 5602 5602 5601
5656 5663 5665 5667 5667 5669 5665 5662 5660 5657 5653 5650 5647 5643 5640 5637 5631 5625 5622 5625 5622 5620 5620 5619 5617 5615 5613 5610 5608 5606 5605 5605 5605 5606 5606 5603 5603 5603 5602 5601 5600 5600 5596 5594
5645 5653 5660 5662 5662 5661 5661 5662 5659 5658 5657 5654 5652 5648 5643 5636 5633 5633 5632 5631 5629 5625 5624 5623 5620 5618 5614 5612 5609 5607 5605 5605 5606 5606 5604 5601 5604 5602 5602 5603 5602 5600 5597 5595
5640 5645 5649 5654 5656 5657 5660 5659 5656 5653 5652 5651 5649 5648 5646 5646 5645 5643 5637 5635 5631 5628 5626 5625 5623 5620 5617 5615 5613 5610 5609 5608 5606 5605 5606 5605 5605 5604 5604 5603 5601 5599 5597 5594
5637 5641 5646 5650 5655 5655 5653 5651 5652 5653 5650 5648 5647 5646 5645 5643 5641 5641 5638 5636 5633 5629 5628 5627 5625 5622 5620 5618 5616 5615 5613 5611 5608 5605 5604 5603 5602 5601 5600 5598 5596 5594 5592 5588
5635 5637 5642 5648 5650 5651 5652 5651 5650 5649 5647 5649 5650 5649 5647 5644 5640 5638 5635 5633 5632 5631 5629 5628 5626 5624 5623 5621 5618 5617 5614 5612 5608 5605 5603 5601 5599 5598 5598 5596 5594 5591 5588 5583